Tracking 30922 objects as of 2-Jul-2025
HD Live streaming from Space Station
objects crossing your sky now

CZ-4 DEB

Track CZ-4 DEB now!
10-day predictions


NORAD ID: 37623
Int'l Code: 1990-081DK
Perigee: 819.1 km
Apogee: 852.2 km
Inclination: 98.7 °
Period: 101.5 minutes
Semi major axis: 7206 km
RCS: 0.0158 m2 (small)
Launch date: September 3, 1990
Source: People's Republic of China (PRC)
Launch site: Taiyaun Space Center, China (TSC)

Note: This is SATELLITE DEBRIS
Your satellite tracking list
COSMOS 2251 DEB
Track 1 satellite(s)




NASA's NSSDC Master Catalog

Two Line Element Set (TLE):
1 37623U 90081DK  25178.19141979  .00000364  00000-0  19462-3 0  9991
2 37623  98.7032 166.0552 0022976  83.4255 276.9536 14.19057599616865
Source of the keplerian elements: AFSPC